Location: Unspecified
(0.0000°N, 0.0000°E)
Time: 00:19:06
(UTC+00:00)

Envisat - Pass Details

Date: 15 January 2021
Orbit: 764 x 766 km, 98.1° (Epoch: 16 January)

Event Time Altitude Azimuth Distance (km) Brightness Sun altitude
Rises 04:20:02 0° 46° (NE) 3,216 6.5 -25.4°
Reaches altitude 10° 04:23:22 10° 70° (ENE) 2,295 6.0 -24.6°
Maximum altitude 04:26:06 15° 103° (ESE) 1,991 6.1 -24.0°
Drops below altitude 10° 04:28:49 10° 136° (SE) 2,300 6.4 -23.4°
Sets 04:32:09 0° 159° (SSE) 3,229 6.9 -22.6°
